Simultaneous Nadir Overpasses (SNOs) Predictions

Prediction of SNOs between AQUA and GOES-15 Satellite Orbit:

Table of predicted SNOs for the next 14.0 days since TLE Epoch: 6/22/2024
Index Date Time (AQUA) AQUA Lat,Lon GOES-15 Lat,Lon Distance(km) Time Diff (sec)
1 06/23/2024 21:49:52 -1.03, 65.13 -0.19, 61.28 439.06 80
2 06/24/2024 10:10:08 -0.00, 60.23 0.22, 61.23 114.01 80
3 06/26/2024 09:53:30 0.87, 64.30 0.21, 61.22 349.53 80
4 06/26/2024 22:13:35 0.18, 59.43 -0.23, 61.26 208.57 80
5 06/28/2024 21:56:57 -0.73, 63.49 -0.23, 61.26 255.02 80
6 06/29/2024 10:17:12 -0.33, 58.60 0.25, 61.22 298.35 80
7 07/01/2024 10:00:33 0.57, 62.66 0.25, 61.22 164.97 80
8 07/01/2024 22:20:39 0.46, 57.80 -0.27, 61.26 392.93 80
9 07/03/2024 22:03:59 -0.42, 61.87 -0.27, 61.26 69.78 80
10 07/04/2024 10:24:14 -0.61, 56.97 0.29, 61.23 484.18 80
